Regional Weather Roundup
Issued by NWS

Home | Current Version | Previous Version | Graphics & Text | Print | Product List | Glossary On
Versions: 1 2 3 4 5 6 7 8 9 10 11 12 13 14 15 16 17 18 19 20 21 22 23 24 25 26 27 28 29 30 31 32 33 34 35 36 37 38 39 40 41 42 43 44 45 46 47 48 49 50
000
ASUS45 KBOU 290007
RWRCO

WEATHER ROUNDUP FOR COLORADO
NATIONAL WEATHER SERVICE DENVER/BOULDER CO
600 PM MDT THU MAY 28 2015

NOTE: "FAIR" INDICATES FEW OR NO CLOUDS BELOW 12000 FEET WITH NO
SIGNIFICANT WEATHER AND/OR OBSTRUCTIONS TO VISIBILITY.

COZ001>005-013-030-031-290100-
...NORTHWEST COLORADO...

CITY           SKY/WX    TMP DP  RH WIND       PRES   REMARKS
CRAIG          CLOUDY    53  44  71 S10       30.18F
HAYDEN         CLOUDY    45  39  81 SW7       30.21R
MEEKER         CLOUDY    53  41  63 E10       30.19R
MOUNT WERNER   NOT AVBL
STEAMBOAT SPGS CLOUDY    46  37  73 CALM      30.21S
WALDEN         CLOUDY    43  36  75 S6        30.21F
$$

COZ006>008-011-290100-
...WEST CENTRAL VALLEYS...

CITY           SKY/WX    TMP DP  RH WIND       PRES   REMARKS
GRAND JUNCTION CLOUDY    62  40  44 SW7       30.11F
MONTROSE       CLOUDY    58  44  60 N15G31    30.18R
EAGLE          PTSUNNY   63  39  42 W17       30.19R
RIFLE          CLOUDY    61  41  47 VRB6      30.14F
DELTA          CLOUDY    68  37  31 NW13G21   30.13R
NUCLA          TSTM      55  45  67 W16G30    30.22R
$$

COZ017>023-064>068-290100-
...SOUTHWEST COLORADO...

CITY           SKY/WX    TMP DP  RH WIND       PRES   REMARKS
DURANGO        MOSUNNY   68  29  23 NW18G28   30.10S
CORTEZ         MOSUNNY   70  40  33 N8        30.10R
PAGOSA SPRINGS PTSUNNY   60  34  37 N5        30.17S
TELLURIDE      CLOUDY    55  31  39 W13G18    30.28S
WOLF CREEK PAS NOT AVBL
$$

COZ009-010-012-014-032>034-037-058>063-290100-
...CENTRAL COLORADO...

CITY           SKY/WX    TMP DP  RH WIND       PRES   REMARKS
ASPEN          LGT RAIN  48  37  65 NW8       30.24R
BUENA VISTA    MOSUNNY   59  31  34 W41G60    30.15R
COPPER MTN     PTSUNNY   41  27  56 W28G35    30.36S
BERTHOUD PASS  TSTM      30  23  74 MISG      30.36F VSB 1/2
COTTONWOOD PAS LGT RAIN  46  34  61 W28G44    30.29R
GUNNISON       PTSUNNY   52  34  50 N10       30.23S
KREMMLING      CLOUDY    52  32  46 NW14G20   30.21R
LEADVILLE      PTSUNNY   42  31  64 W20G29    30.29R
SALIDA         MOSUNNY   66  27  23 W32G43    30.21R
SUNLIGHT       CLOUDY    39  34  81 CALM      30.34F
WILKERSON PASS MOSUNNY   50  12  22 W13G20    30.31S
$$

COZ069>075-290100-
...SAN LUIS VALLEY/SANGRE DE CRISTO MOUNTAINS...

CITY           SKY/WX    TMP DP  RH WIND       PRES   REMARKS
ALAMOSA        MOSUNNY   67  27  22 W21G29    30.10F
LA VETA PASS   MOSUNNY  N/A N/A N/A MISG      30.21F
SAGUACHE       MOSUNNY   59  37  44 S3        30.14F
$$

COZ035-036-038>040-290100-
...NORTHERN COLORADO FRONT RANGE...

CITY           SKY/WX    TMP DP  RH WIND       PRES   REMARKS
DENVER INTL AP PTSUNNY   65  48  54 NE9       29.98R THUNDER
DMNS CITY PARK   N/A     65  46  50 N5G21     29.97R
AURORA         NOT AVBL
FRONT RANGE AP PTSUNNY   68  50  52 NE13      29.97F
ERIE MUNI ARPT PTSUNNY   68  47  47 N8        29.96F
BOULDER MUN AP PTSUNNY   70  45  40 NE8       29.97F
CENTENNIAL     PTSUNNY   69  40  34 N6        29.96F
BROOMFIELD     PTSUNNY   66  48  52 E5        29.99S
FORT COLLINS   CLOUDY    70  48  46 SW5       29.98R
LONGMONT       CLOUDY    74  44  34 NW3       29.98F
$$

COZ041-046-047-076>085-087-088-290100-
...PIKES PEAK/PALMER DIVIDE AND SOUTHERN FOOTHILLS...

CITY           SKY/WX    TMP DP  RH WIND       PRES   REMARKS
COLO. SPRINGS  PTSUNNY   70  40  33 N13G23    29.99R
A. F. ACADEMY  MOSUNNY   64  41  42 NW13      29.98F
ELLICOTT       MOSUNNY  N/A N/A N/A E17G23    30.00R
FALCON         MOSUNNY   67  37  33 N54G102   30.04R
FORT CARSON    MOSUNNY   73  44  35 N15       29.94S
LIMON          CLOUDY    58  51  78 SE5       29.97R
MONUMENT HILL  MOSUNNY   63  36  36 SW6       30.03F
TRINIDAD       MOSUNNY   71  42  35 N10       29.96F
$$

COZ042>045-048>051-090-091-290100-
...NORTHEAST COLORADO...

CITY           SKY/WX    TMP DP  RH WIND       PRES   REMARKS
GREELEY ARPT   CLOUDY    66  48  52 E7        29.95S
AKRON          CLOUDY    58  53  84 NE3       29.95F
BURLINGTON     CLOUDY    59  51  75 SW5       29.99R
WRAY           HVY RAIN  57  52  84 NW25G35   29.98R
STERLING       CLOUDY    55  52  88 CALM      29.93F
HOLYOKE        TSTM      61  54  77 S10       29.96S
FORT MORGAN    CLOUDY    61  52  71 NE9       29.95F
$$

COZ086-089-092>099-290100-
...SOUTHEAST COLORADO...

CITY           SKY/WX    TMP DP  RH WIND       PRES   REMARKS
PUEBLO         PTSUNNY   73  44  35 S7        29.88F
LA JUNTA       TSTM      67  47  48 W24G37    29.91R
LAMAR          CLOUDY    72  55  55 W5        29.85R
SPRINGFIELD      N/A     60  50  69 S18G24    29.91R
$$


USA.gov is the U.S. government's official web portal to all federal, state and local government web resources and services.